Tracking 18980 objects as of 22-Feb-2018
HD Live streaming from Space Station
objects crossing your sky now

FENGYUN 1C DEB

Track FENGYUN 1C DEB now!
10-day predictions


NORAD ID: 37051
Int'l Code: 1999-025EEK
Perigee: 488.3 km
Apogee: 510.1 km
Inclination: 98.9 °
Period: 94.5 minutes
Semi major axis: 6870 km
RCS: 0.0014 m2 (small)
Launch date: May 10, 1999
Source: People's Republic of China (PRC)
Launch site: Taiyaun Space Center, China (TSC)

Note: This is SATELLITE DEBRIS
aabbcc
Your satellite tracking list
Your tracking list is empty




NASA's NSSDC Master Catalog

Two Line Element Set (TLE):
1 37051U 99025EEK 18052.09660867  .00040744  00000-0  16436-2 0  9990
2 37051  98.9207 358.8741 0015879  34.5561 325.6701 15.24578027452762
Source of the keplerian elements: AFSPC